Regional Weather Roundup
Issued by NWS Little Rock, AR

Home | Current Version | Previous Version | Text Only | Print | Product List | Glossary Off
Versions: 1 2 3 4 5 6 7 8 9 10 11 12 13 14 15 16 17 18 19 20 21 22 23 24 25 26 27 28 29 30 31 32 33 34 35 36 37 38 39 40 41 42 43 44 45 46 47 48 49 50

000
ASUS44 KLZK 261005
RWRLZK

WEATHER ROUNDUP FOR ARKANSAS
NATIONAL WEATHER SERVICE LITTLE ROCK AR
400 AM CST THU FEB 26 2015

NOTE: "FAIR" INDICATES FEW OR NO CLOUDS BELOW 12,000 FEET WITH NO
SIGNIFICANT WEATHER AND/OR OBSTRUCTIONS TO VISIBILITY.

ARZ001-003-010-029-261100-
NORTHWEST ARKANSAS

CITY           SKY/WX    TMP DP  RH WIND       PRES   REMARKS
FAYETTEVILLE   CLOUDY    27  21  78 N16       30.02R WCI  15
FORT SMITH     CLOUDY    35  27  72 NW10G23   30.02R WCI  27
HARRISON       CLOUDY    29  25  85 NW16G24   29.94R WCI  17
BENTONVILLE    CLOUDY    27  18  69 N12       30.04R WCI  16
ROGERS         CLOUDY    25  20  81 N16G23    30.03R WCI  12
SILOAM SPGS    CLOUDY    27  16  63 N21       30.05R WCI  13
HIGHFILL       FLURRIES  26  18  71 N23       30.03R WCI  11
$$

ARZ004-005-016-261100-
NORTH CENTRAL ARKANSAS

CITY           SKY/WX    TMP DP  RH WIND       PRES   REMARKS
BATESVILLE     CLOUDY    28  25  86 CALM      29.92R
FLIPPIN        CLOUDY    34  27  75 NW13      29.92R WCI  25
MTN HOME       CLOUDY    32  27  81 NW7       29.92R WCI  26
$$

ARZ040-041-261100-
WEST CENTRAL ARKANSAS

CITY           SKY/WX    TMP DP  RH WIND       PRES   REMARKS
MENA           CLEAR     32  30  93 CALM      29.95R
MOUNT IDA      CLEAR     24  22  91 CALM      29.93R
$$

ARZ009-017-025-026-028-261100-
NORTHEAST ARKANSAS

CITY           SKY/WX    TMP DP  RH WIND       PRES   REMARKS
CORNING        FAIR      27  27 100 CALM      29.93R FOG
JONESBORO      CLEAR     24  23  96 CALM      29.92S FOG
NEWPORT        CLEAR     26  26 100 CALM      29.95R FOG
WALNUT RIDGE   PTCLDY    27  23  86 CALM      29.92R
BLYTHEVILLE    CLEAR     26  24  92 CALM      29.92R FOG
$$

ARZ022-023-033-042-044-261100-
CENTRAL ARKANSAS

CITY           SKY/WX    TMP DP  RH WIND       PRES   REMARKS
LITTLE ROCK    FOG       31  28  89 W7        29.96R VSB 1/16WCI  24
N LITTLE ROCK    N/A     28  28 100 W5        29.96R WCI  22
JACKSONVILLE   FOG       28  27  97 W3        29.94R VSB 1/4
SEARCY         CLEAR     22  20  92 W3        29.96R
HOT SPRINGS    FOG       28  27  96 W6        29.96R VSB 1/4 WCI  22
RUSSELLVILLE   CLEAR     25  23  92 S3        29.95R
CLINTON        CLOUDY    27  25  93 CALM      29.97R
$$

ARZ036-261100-
EAST ARKANSAS

CITY           SKY/WX    TMP DP  RH WIND       PRES   REMARKS
WEST MEMPHIS   CLEAR     25  24  96 CALM      29.92S FOG
$$

ARZ050-053-066-070-073-261100-
SOUTHWEST ARKANSAS

CITY           SKY/WX    TMP DP  RH WIND       PRES   REMARKS
ARKADELPHIA    FOG       29  29 100 W3        29.98R VSB 1/4
CAMDEN         FOG       25  23  93 CALM      29.98R VSB 1/4
TEXARKANA      FOG       27  26  96 NW6       29.99R VSB 3/4 WCI  20
EL DORADO      CLOUDY    31  29  92 CALM      29.96R
DE QUEEN       FOG       28  27  96 CALM      29.99R VSB 1/4
$$

ARZ056-057-069-261100-
SOUTHEAST ARKANSAS

CITY           SKY/WX    TMP DP  RH WIND       PRES   REMARKS
PINE BLUFF     FOG       29  29 100 W6        29.96R VSB 1/2 WCI  23
STUTTGART      CLOUDY    28  27  93 CALM      29.96R VSB 1/4
MONTICELLO     CLOUDY    31  30  96 NW6       29.96R FOG     WCI  25

$$




USA.gov is the U.S. government's official web portal to all federal, state and local government web resources and services.